Location: *
(51.0333°S, 178.4667°E)
Time: 16:53:52
(UTC+00:00)

Cosmos 1842 - Pass Details

Date: 15 November 2019
Orbit: 522 x 538 km, 82.5° (Epoch: 11 December)

Event Time Altitude Azimuth Distance (km) Brightness Sun altitude
Rises 11:14:27 0° 192° (SSW) 2,743 8.5 -20.0°
Reaches altitude 10° 11:16:38 10° 192° (SSW) 1,842 7.2 -20.1°
Maximum altitude 11:20:42 82° 279° (W) 561 3.2 -20.2°
Enters shadow 11:21:22 61° 354° (N) 629 3.2 -20.2°
